• In Belgium
  • List of Countries
  • For 7 days
  • Water Temperature
  • Satellite Maps
  • Weather Map
  • Weather Widgets
  • user-avatar
    Login

    Hourly Weather Bruges

    Today, 13 December, Wednesday

    Time Temperature Precipitation Wind Pressure Humidity
    00:00 -1°C° 0 mm 9 mps 757 mmHg 85%
    01:00 0°C° 0.1 mm 9 mps 756 mmHg 85%
    02:00 0°C° 0.1 mm 10 mps 755 mmHg 84%
    03:00 +1°C° 0.1 mm 11 mps 754 mmHg 84%
    04:00 +1°C° 0.7 mm 11 mps 753 mmHg 84%
    05:00 +2°C° 0.7 mm 12 mps 753 mmHg 84%
    06:00 +2°C° 0.7 mm 12 mps 752 mmHg 84%
    07:00 +3°C° 0.4 mm 11 mps 751 mmHg 85%
    08:00 +3°C° 0.4 mm 10 mps 751 mmHg 86%
    09:00 +5°C° 0.4 mm 9 mps 751 mmHg 87%
    10:00 +5°C° 0.2 mm 8 mps 750 mmHg 87%
    11:00 +5°C° 0.2 mm 7 mps 750 mmHg 87%
    12:00 +6°C° 0.2 mm 7 mps 749 mmHg 86%
    13:00 +6°C° 0.3 mm 7 mps 748 mmHg 87%
    14:00 +6°C° 0.3 mm 8 mps 747 mmHg 88%
    15:00 +6°C° 0.3 mm 8 mps 746 mmHg 89%
    16:00 +6°C° 1.8 mm 9 mps 745 mmHg 89%
    17:00 +6°C° 1.8 mm 10 mps 744 mmHg 88%
    18:00 +7°C° 1.8 mm 11 mps 743 mmHg 87%
    19:00 +6°C° 0.7 mm 11 mps 743 mmHg 80%
    20:00 +5°C° 0.7 mm 10 mps 744 mmHg 74%
    21:00 +5°C° 0.7 mm 10 mps 744 mmHg 67%
    22:00 +3°C° 0.8 mm 11 mps 743 mmHg 68%
    23:00 +3°C° 0.8 mm 13 mps 743 mmHg 69%

    Tomorrow, 14 December, Thursday

    Time Temperature Precipitation Wind Pressure Humidity
    00:00 +3°C° 0.8 mm 14 mps 743 mmHg 70%
    01:00 +1°C° 0.2 mm 14 mps 744 mmHg 66%
    02:00 +1°C° 0.2 mm 14 mps 745 mmHg 63%
    03:00 0°C° 0.2 mm 14 mps 745 mmHg 60%
    04:00 0°C° 0.1 mm 13 mps 746 mmHg 62%
    05:00 0°C° 0.1 mm 12 mps 746 mmHg 64%
    06:00 +2°C° 0.1 mm 11 mps 747 mmHg 66%
    07:00 +2°C° 0.1 mm 10 mps 747 mmHg 67%
    08:00 +2°C° 0.1 mm 10 mps 747 mmHg 68%
    09:00 +2°C° 0.1 mm 9 mps 747 mmHg 69%
    10:00 +3°C° 0.1 mm 9 mps 746 mmHg 67%
    11:00 +3°C° 0.1 mm 9 mps 746 mmHg 65%
    12:00 +5°C° 0.1 mm 8 mps 746 mmHg 63%
    13:00 +5°C° 0.2 mm 8 mps 745 mmHg 67%
    14:00 +4°C° 0.2 mm 7 mps 744 mmHg 71%
    15:00 +4°C° 0.2 mm 6 mps 744 mmHg 75%
    16:00 +3°C° 0.9 mm 6 mps 743 mmHg 79%
    17:00 +3°C° 0.9 mm 5 mps 742 mmHg 83%
    18:00 +3°C° 0.9 mm 5 mps 742 mmHg 86%
    19:00 +2°C° 0.2 mm 5 mps 742 mmHg 83%
    20:00 +2°C° 0.2 mm 6 mps 742 mmHg 79%
    21:00 +2°C° 0.2 mm 6 mps 742 mmHg 75%
    22:00 +2°C° 0 mm 6 mps 743 mmHg 75%
    23:00 +1°C° 0 mm 6 mps 743 mmHg 75%

    Day after tomorrow, 15 December, Friday

    Time Temperature Precipitation Wind Pressure Humidity
    00:00 +1°C° 0 mm 6 mps 743 mmHg 75%
    01:00 +1°C° 0 mm 6 mps 743 mmHg 77%
    02:00 +1°C° 0 mm 6 mps 743 mmHg 78%
    03:00 +1°C° 0 mm 6 mps 743 mmHg 79%
    04:00 +1°C° 0.6 mm 6 mps 743 mmHg 81%
    05:00 +1°C° 0.6 mm 6 mps 743 mmHg 83%
    06:00 +2°C° 0.6 mm 6 mps 743 mmHg 85%
    07:00 +2°C° 0.3 mm 6 mps 743 mmHg 85%
    08:00 +2°C° 0.3 mm 5 mps 743 mmHg 85%
    09:00 +2°C° 0.3 mm 5 mps 743 mmHg 84%
    10:00 +3°C° 0.1 mm 5 mps 744 mmHg 82%
    11:00 +5°C° 0.1 mm 5 mps 745 mmHg 79%
    12:00 +5°C° 0.1 mm 5 mps 745 mmHg 76%
    13:00 +4°C° 0.2 mm 6 mps 746 mmHg 77%
    14:00 +4°C° 0.2 mm 6 mps 747 mmHg 79%
    15:00 +4°C° 0.2 mm 7 mps 747 mmHg 80%
    16:00 +3°C° 0.1 mm 6 mps 749 mmHg 81%
    17:00 +3°C° 0.1 mm 6 mps 750 mmHg 82%
    18:00 +2°C° 0.1 mm 5 mps 751 mmHg 84%
    19:00 +2°C° 0.2 mm 6 mps 752 mmHg 83%
    20:00 +2°C° 0.2 mm 6 mps 753 mmHg 82%
    21:00 +3°C° 0.2 mm 7 mps 753 mmHg 81%
    22:00 +2°C° 0.1 mm 7 mps 754 mmHg 81%
    23:00 +2°C° 0.1 mm 7 mps 754 mmHg 80%

    16 December, Saturday

    Time Temperature Precipitation Wind Pressure Humidity
    00:00 +2°C° 0.1 mm 7 mps 755 mmHg 80%
    01:00 +2°C° 0.2 mm 7 mps 755 mmHg 80%
    02:00 +2°C° 0.2 mm 7 mps 756 mmHg 81%
    03:00 +2°C° 0.2 mm 7 mps 756 mmHg 81%
    04:00 +2°C° 0.2 mm 7 mps 757 mmHg 81%
    05:00 +2°C° 0.2 mm 7 mps 757 mmHg 80%
    06:00 +2°C° 0.2 mm 7 mps 758 mmHg 80%
    07:00 +2°C° 0.1 mm 7 mps 758 mmHg 79%
    08:00 +2°C° 0.1 mm 7 mps 759 mmHg 79%
    09:00 +2°C° 0.1 mm 7 mps 759 mmHg 78%
    10:00 +2°C° 0.1 mm 7 mps 760 mmHg 76%
    11:00 +3°C° 0.1 mm 7 mps 760 mmHg 74%
    12:00 +3°C° 0.1 mm 7 mps 760 mmHg 72%
    13:00 +3°C° 0.1 mm 7 mps 761 mmHg 73%
    14:00 +3°C° 0.1 mm 7 mps 761 mmHg 73%
    15:00 +2°C° 0.1 mm 6 mps 762 mmHg 74%
    16:00 +2°C° 0.1 mm 6 mps 762 mmHg 76%
    17:00 +2°C° 0.1 mm 6 mps 763 mmHg 77%
    18:00 +1°C° 0.1 mm 5 mps 763 mmHg 78%
    19:00 +1°C° 0.1 mm 5 mps 764 mmHg 79%
    20:00 +1°C° 0.1 mm 5 mps 764 mmHg 79%
    21:00 0°C° 0.1 mm 4 mps 765 mmHg 80%
    22:00 0°C° 0.1 mm 4 mps 765 mmHg 80%
    23:00 0°C° 0.1 mm 4 mps 765 mmHg 80%

    17 December, Sunday

    Time Temperature Precipitation Wind Pressure Humidity
    00:00 +1°C° 0.1 mm 3 mps 766 mmHg 81%
    01:00 +1°C° 0.1 mm 3 mps 766 mmHg 82%
    02:00 +1°C° 0.1 mm 3 mps 766 mmHg 83%
    03:00 +1°C° 0.1 mm 3 mps 767 mmHg 84%
    04:00 +1°C° 0.1 mm 3 mps 767 mmHg 84%
    05:00 +1°C° 0.1 mm 3 mps 768 mmHg 84%
    06:00 +1°C° 0.1 mm 3 mps 768 mmHg 84%
    07:00 +3°C° 0.1 mm 2 mps 769 mmHg 83%
    08:00 +3°C° 0.1 mm 2 mps 769 mmHg 82%
    09:00 +3°C° 0.1 mm 2 mps 770 mmHg 82%
    10:00 +4°C° 0 mm 2 mps 770 mmHg 79%
    11:00 +5°C° 0 mm 2 mps 770 mmHg 76%
    12:00 +6°C° 0 mm 2 mps 770 mmHg 73%
    13:00 +5°C° 0 mm 2 mps 770 mmHg 76%
    14:00 +4°C° 0 mm 3 mps 771 mmHg 79%
    15:00 +3°C° 0 mm 3 mps 771 mmHg 81%
    16:00 +3°C° 0 mm 3 mps 771 mmHg 84%
    17:00 +2°C° 0 mm 3 mps 771 mmHg 86%
    18:00 +2°C° 0 mm 3 mps 772 mmHg 88%
    19:00 0°C° 0 mm 4 mps 772 mmHg 89%
    20:00 0°C° 0 mm 4 mps 772 mmHg 89%
    21:00 0°C° 0 mm 5 mps 772 mmHg 90%
    22:00 -1°C° 0 mm 5 mps 772 mmHg 89%
    23:00 -2°C° 0 mm 6 mps 772 mmHg 88%

    18 December, Monday

    Time Temperature Precipitation Wind Pressure Humidity
    00:00 -2°C° 0 mm 6 mps 772 mmHg 87%
    01:00 -2°C° 0 mm 6 mps 771 mmHg 86%
    02:00 -1°C° 0 mm 7 mps 771 mmHg 85%
    03:00 -1°C° 0 mm 7 mps 771 mmHg 84%
    04:00 -1°C° 0.2 mm 7 mps 770 mmHg 85%
    05:00 0°C° 0.2 mm 8 mps 770 mmHg 86%
    06:00 0°C° 0.2 mm 8 mps 769 mmHg 87%
    07:00 +1°C° 0.3 mm 8 mps 769 mmHg 88%
    08:00 +1°C° 0.3 mm 8 mps 769 mmHg 89%
    09:00 +2°C° 0.3 mm 8 mps 769 mmHg 91%
    10:00 +4°C° 0.3 mm 8 mps 768 mmHg 92%
    11:00 +4°C° 0.3 mm 7 mps 768 mmHg 93%
    12:00 +5°C° 0.3 mm 7 mps 768 mmHg 94%
    13:00 +5°C° 0.1 mm 6 mps 768 mmHg 94%
    14:00 +7°C° 0.1 mm 6 mps 768 mmHg 94%
    15:00 +7°C° 0.1 mm 5 mps 768 mmHg 94%
    16:00 +7°C° 0 mm 5 mps 768 mmHg 94%
    17:00 +7°C° 0 mm 5 mps 769 mmHg 94%
    18:00 +7°C° 0 mm 5 mps 769 mmHg 93%
    19:00 +6°C° 0 mm 5 mps 770 mmHg 93%
    20:00 +5°C° 0 mm 4 mps 770 mmHg 92%
    21:00 +5°C° 0 mm 4 mps 771 mmHg 91%
    22:00 +4°C° 0 mm 4 mps 771 mmHg 91%
    23:00 +4°C° 0 mm 3 mps 772 mmHg 90%
    Show more